Date,TemperatureHighF,TemperatureAvgF,TemperatureLowF,DewpointHighF,DewpointAvgF,DewpointLowF,HumidityHigh,HumidityAvg,HumidityLow,PressureMaxIn,PressureMinIn,WindSpeedMaxMPH,WindSpeedAvgMPH,GustSpeedMaxMPH,PrecipitationSumIn
2013-1-1,30.3,24.8,18.2,24.6,18.8,10.4,92,78,68,30.38,30.12,34,12,34,0.00
2013-1-2,25.0,18.1,10.0,13.1,6.8,0.5,71,61,46,30.50,30.34,21,9,21,0.00
2013-1-3,41.7,23.9,11.2,18.4,7.6,0.3,62,51,22,30.42,30.10,16,7,16,0.00
2013-1-4,40.5,31.4,21.1,25.0,18.1,9.6,75,58,43,30.17,30.06,28,9,28,0.00
2013-1-5,38.1,26.6,17.8,23.3,16.7,7.5,84,67,43,30.35,30.10,23,6,23,0.00
2013-1-6,41.5,30.9,18.1,27.5,18.4,7.1,72,60,44,30.12,29.82,33,12,33,0.00
2013-1-7,40.7,34.1,24.4,28.8,23.3,15.8,78,64,48,29.96,29.56,34,12,34,0.00
2013-1-8,39.9,32.6,25.7,29.1,22.2,17.0,89,66,50,30.03,29.57,44,15,44,0.00
2013-1-9,48.9,42.7,33.9,28.3,25.8,20.5,63,51,41,29.91,29.57,36,12,36,0.00
2013-1-10,41.9,22.3,7.2,26.2,16.9,4.2,98,81,48,29.99,29.50,27,13,27,0.00
2013-1-11,7.6,2.8,1.1,4.1,-0.7,-2.3,87,85,84,30.44,29.97,28,15,28,0.00
2013-1-12,11.3,5.9,1.5,8.2,2.2,-2.2,87,84,81,30.42,30.33,23,7,23,0.00
2013-1-13,13.7,10.2,1.2,9.6,6.4,-3.0,92,84,80,30.41,30.28,28,10,28,0.00
2013-1-14,24.8,15.8,9.8,22.5,8.9,2.5,91,74,60,30.31,30.08,24,14,24,0.00
2013-1-15,37.7,31.0,24.0,27.3,24.7,21.7,93,78,64,30.11,30.02,37,17,37,0.00
2013-1-16,39.5,33.6,27.8,24.5,21.5,18.8,72,61,49,30.33,30.03,34,14,34,0.00
2013-1-17,43.2,35.0,22.3,27.0,21.5,15.4,78,58,40,30.36,29.91,37,14,37,0.00
2013-1-18,44.6,38.7,32.4,25.4,21.5,18.5,61,50,42,29.98,29.81,33,13,37,0.00
2013-1-19,37.6,29.2,23.3,24.7,19.9,16.0,89,69,46,30.33,29.98,22,6,22,0.00
2013-1-20,28.1,15.6,12.4,17.7,11.8,8.4,92,85,65,30.61,30.23,33,8,33,0.00
2013-1-21,36.1,23.6,13.4,22.1,15.6,10.7,89,72,54,30.48,30.07,13,1,13,0.00
2013-1-22,44.4,32.1,18.0,19.4,14.7,7.9,65,49,32,30.18,30.03,17,7,17,0.00
2013-1-23,47.8,24.8,19.7,25.4,16.1,12.5,80,71,36,30.23,29.82,29,11,29,0.00
2013-1-24,47.9,43.0,39.1,28.4,25.5,21.2,63,50,37,29.92,29.79,33,18,33,0.00
2013-1-25,46.4,40.1,34.0,30.5,27.8,23.1,78,62,52,30.03,29.85,24,9,24,0.00
2013-1-26,51.1,40.7,30.9,32.3,29.8,27.0,94,67,41,29.85,29.61,29,7,29,0.00
2013-1-27,33.3,29.2,23.6,30.0,24.5,16.8,95,83,67,29.89,29.71,14,5,14,0.01
2013-1-28,32.2,25.2,16.3,17.9,14.5,10.9,83,64,46,29.93,29.74,20,7,20,0.00
2013-1-29,25.7,6.5,-5.9,20.4,2.6,-10.0,92,84,67,30.45,29.72,33,10,33,0.00
2013-1-30,29.7,16.2,-1.9,23.4,12.2,-7.0,91,84,65,30.27,30.02,25,10,25,0.00
2013-1-31,34.4,17.1,0.8,30.3,14.2,-2.8,92,88,84,30.42,30.02,20,4,20,0.03
2013-2-1,38.2,32.8,26.5,32.0,28.1,18.4,100,83,64,30.24,29.99,33,12,33,0.02
2013-2-2,38.2,31.9,22.9,27.2,22.2,16.4,79,67,56,30.37,30.13,26,14,26,0.00
2013-2-3,41.4,34.2,21.6,26.9,21.3,15.6,80,60,45,30.15,29.88,28,10,29,0.00
2013-2-4,41.4,34.4,20.9,29.8,25.7,15.2,84,70,60,29.94,29.74,29,10,29,0.00
2013-2-5,43.3,35.1,25.8,30.5,25.9,20.8,82,69,52,29.95,29.68,30,9,30,0.00
2013-2-6,40.8,33.0,23.6,26.6,21.6,15.7,73,63,47,30.07,29.70,28,9,28,0.00
2013-2-7,41.1,28.7,16.2,22.3,16.8,10.1,80,62,41,30.11,29.92,18,5,18,0.00
2013-2-8,37.4,26.3,16.3,24.2,17.7,10.4,82,70,56,30.05,29.92,12,4,12,0.00
2013-2-9,35.3,24.5,14.2,24.2,17.7,10.2,93,76,52,30.03,29.86,22,5,22,0.00
2013-2-10,25.3,17.4,6.2,23.2,14.3,1.1,92,87,76,30.33,30.00,33,13,33,0.00
2013-2-11,36.2,16.6,-2.0,21.6,8.7,-6.3,87,73,40,30.33,30.06,12,4,12,0.00
2013-2-12,39.7,29.3,13.0,27.8,21.1,9.1,88,72,60,30.11,29.78,33,13,36,0.00
2013-2-13,39.4,33.2,21.6,29.3,25.5,19.4,94,74,51,30.23,29.77,43,17,43,0.00
2013-2-14,27.6,20.9,13.1,21.2,14.2,7.4,92,77,45,30.49,30.22,24,6,24,0.01
2013-2-15,24.6,23.7,22.0,21.6,17.6,15.3,90,77,70,30.51,30.37,15,6,15,0.00
2013-2-16,23.8,23.8,23.8,16.7,16.7,16.7,74,74,74,30.49,30.49,7,7,11,0.00
2013-2-17,28.7,25.3,23.8,27.5,20.9,16.7,100,83,74,30.49,29.74,33,12,33,0.00
2013-2-18,28.4,22.6,18.0,22.0,16.5,11.4,99,78,51,30.21,30.06,22,8,23,0.00
2013-2-19,25.6,19.5,12.8,18.2,14.1,9.4,87,80,67,30.06,29.83,26,10,26,0.00
2013-2-20,22.6,15.8,7.3,17.9,12.7,4.3,91,87,82,30.06,29.90,10,2,12,0.00
2013-2-21,30.7,20.3,9.8,18.7,13.2,6.9,91,75,53,30.11,29.94,14,4,14,0.02
2013-2-22,36.4,28.8,18.3,22.9,17.1,11.0,75,62,52,30.00,29.52,32,10,32,0.00
2013-2-23,36.2,31.6,24.9,24.6,21.5,15.6,88,67,51,30.05,29.51,35,16,35,0.00
2013-2-24,34.9,26.3,13.2,21.3,15.6,9.3,86,65,46,30.26,29.99,21,6,22,0.00
2013-2-25,40.2,30.1,17.1,26.0,19.3,10.6,76,64,50,30.01,29.77,24,8,24,0.00
2013-2-26,29.5,25.2,18.6,23.0,18.5,14.1,88,76,62,30.31,29.86,27,10,27,0.00
2013-2-27,37.1,24.5,10.5,20.4,14.5,6.2,89,67,45,30.40,30.23,16,5,16,0.00
2013-2-28,40.4,29.1,17.4,27.2,19.3,10.6,82,67,53,30.33,30.20,30,7,30,0.00
2013-3-1,51.0,39.4,20.4,35.8,29.6,15.3,89,68,52,30.29,30.11,31,12,31,0.00
2013-3-2,52.6,43.4,37.4,34.9,30.5,26.7,75,61,45,30.14,29.75,24,7,24,0.00
2013-3-3,42.4,33.8,17.3,33.2,25.8,14.9,93,73,51,30.01,29.56,48,18,48,0.00
2013-3-4,18.0,13.7,2.2,14.9,10.5,-1.7,90,87,81,30.57,29.94,43,16,43,0.00
2013-3-5,32.1,17.2,1.4,20.5,10.8,-2.5,85,76,55,30.55,30.10,17,8,17,0.00
2013-3-6,37.4,26.9,18.0,28.0,19.9,13.2,88,75,56,30.11,29.74,16,6,16,0.00
2013-3-7,39.5,28.6,22.3,28.8,22.8,19.0,93,80,50,30.14,29.80,18,4,18,0.01
2013-3-8,41.1,30.5,21.0,29.6,22.7,17.3,92,73,50,30.12,29.89,17,4,17,0.00
2013-3-9,37.4,27.7,16.6,25.1,20.2,14.0,92,74,55,30.29,29.99,30,8,30,0.00
2013-3-10,46.8,32.9,18.3,27.9,21.6,13.6,84,65,39,30.29,29.92,26,8,29,0.00
2013-3-11,36.2,27.0,19.2,27.9,22.4,16.4,92,83,70,30.42,29.92,29,10,29,0.00
2013-3-12,43.9,29.8,16.0,32.7,22.3,12.7,89,74,54,30.42,29.98,30,9,30,0.01
2013-3-13,58.6,46.1,37.4,39.0,32.9,29.3,76,61,42,30.04,29.91,34,12,34,0.00
2013-3-14,56.5,46.4,34.4,38.9,32.8,27.5,78,60,43,30.09,29.77,22,5,22,0.00
2013-3-15,53.0,44.6,29.3,32.8,29.2,25.4,85,56,38,30.02,29.72,44,13,44,0.00
2013-3-16,46.4,31.6,23.0,31.8,25.5,20.6,93,79,48,30.05,29.62,23,6,23,0.00
2013-3-17,36.1,24.4,8.3,31.5,20.0,4.4,94,83,70,30.12,29.46,43,14,43,0.06
2013-3-18,34.2,20.2,3.4,21.1,12.6,0.0,91,74,42,30.16,29.90,46,10,46,0.00
2013-3-19,33.5,24.2,17.7,22.0,16.5,11.9,91,74,44,30.37,30.02,15,4,15,0.02
2013-3-20,53.2,36.9,18.4,32.1,22.2,10.6,80,56,40,30.25,29.44,31,10,34,0.00
2013-3-21,41.6,35.3,26.5,31.4,17.6,8.5,82,50,27,29.90,29.48,33,12,34,0.00
2013-3-22,26.8,20.7,15.3,21.3,17.1,12.6,92,86,59,30.36,29.89,25,12,25,0.00
2013-3-23,25.1,14.9,3.6,14.8,7.8,-1.5,89,74,57,30.49,30.34,29,9,29,0.00
2013-3-24,28.2,16.4,3.0,13.6,6.3,-1.6,92,66,35,30.52,30.41,21,6,21,0.00
2013-3-25,44.7,26.6,9.4,15.8,9.5,2.9,75,53,25,30.42,30.02,21,7,21,0.00
2013-3-26,46.4,33.1,19.6,20.4,16.5,11.2,74,53,32,30.06,29.98,16,5,16,0.00
2013-3-27,54.4,38.8,23.7,26.0,21.8,16.5,76,53,31,30.04,29.93,16,6,16,0.00
2013-3-28,59.0,42.8,27.3,34.8,27.9,21.3,79,58,35,30.08,29.95,21,4,21,0.00
2013-3-29,53.1,43.2,30.6,35.0,30.5,26.4,89,63,42,30.08,29.93,23,8,23,0.00
2013-3-30,53.1,42.5,34.3,30.9,26.4,22.9,77,56,32,30.14,29.99,33,9,33,0.00
2013-3-31,49.7,39.1,26.7,30.0,24.9,19.9,82,58,41,30.15,29.95,33,10,33,0.00
2013-4-1,53.9,38.6,23.3,28.5,23.8,18.4,82,58,35,30.17,30.01,25,9,25,0.00
2013-4-2,66.5,47.5,26.5,30.3,25.1,20.2,78,46,22,30.06,29.76,19,6,19,0.00
2013-4-3,56.0,46.1,36.6,34.6,30.7,26.4,69,55,43,30.05,29.76,30,8,31,0.00
2013-4-4,50.2,40.1,27.8,31.6,27.5,20.6,75,61,48,30.11,29.72,25,12,27,0.00
2013-4-5,59.4,50.0,37.0,37.3,31.1,25.2,75,50,29,29.73,29.53,37,14,37,0.00
2013-4-6,55.2,45.5,32.5,36.5,30.0,24.5,75,56,38,29.79,29.66,27,9,27,0.00
2013-4-7,49.2,40.3,24.7,38.0,30.1,23.0,93,68,46,29.82,29.54,22,10,23,0.22
2013-4-8,24.9,17.5,13.3,22.9,14.6,10.7,93,88,81,30.51,29.80,20,7,21,0.08
2013-4-9,28.8,18.1,5.9,18.7,12.3,2.6,90,78,57,30.65,30.39,14,4,14,0.02
2013-4-10,51.3,33.3,12.6,34.8,23.2,9.0,86,68,49,30.39,29.62,25,6,25,0.00
2013-4-11,49.9,40.2,33.6,36.8,32.9,29.4,96,76,48,29.93,29.63,37,14,37,0.05
2013-4-12,44.1,34.7,27.6,30.4,24.6,19.5,94,70,40,30.12,29.66,30,11,30,0.00
2013-4-13,46.9,39.6,29.7,34.1,23.8,12.0,89,55,33,29.67,29.33,42,14,42,0.01
2013-4-14,30.3,24.1,16.9,24.3,20.9,14.2,92,88,79,30.11,29.62,30,16,30,0.00
2013-4-15,26.7,19.2,9.6,23.8,16.4,6.7,92,89,81,30.29,30.10,17,7,17,0.02
2013-4-16,27.4,22.0,17.8,20.2,17.5,14.7,92,83,63,30.43,30.23,18,7,18,0.00
2013-4-17,29.7,22.0,16.5,22.5,17.3,13.8,92,82,63,30.46,30.38,19,6,19,0.01
2013-4-18,46.5,31.4,11.9,26.1,18.7,6.7,86,62,40,30.38,30.05,28,11,33,0.01
2013-4-19,48.2,39.9,27.0,38.5,29.8,22.1,84,68,43,30.06,29.71,23,6,23,0.00
2013-4-20,54.5,40.9,29.9,38.5,32.4,26.0,93,73,41,29.94,29.72,45,12,45,0.12
2013-4-21,34.9,24.5,21.6,32.9,22.4,19.8,94,91,85,30.41,29.93,22,9,22,0.03
2013-4-22,31.7,24.6,18.2,22.4,18.3,14.2,93,78,52,30.56,30.40,15,4,15,0.02
2013-4-23,46.2,30.0,12.2,27.4,18.1,8.4,85,64,32,30.46,30.13,37,10,37,0.00
2013-4-24,52.4,38.7,27.8,33.1,26.9,20.9,95,67,33,30.25,29.83,33,11,33,0.02
2013-4-25,60.9,48.0,31.5,29.5,26.3,20.2,66,44,28,29.86,29.70,35,12,35,0.00
2013-4-26,68.8,52.3,29.5,34.6,30.4,24.3,82,47,24,30.02,29.86,29,10,29,0.00
2013-4-27,67.5,58.2,48.0,34.5,30.9,27.3,53,36,25,29.89,29.65,34,16,34,0.00
2013-4-28,60.4,52.4,41.6,39.7,33.3,27.4,64,49,34,29.87,29.63,31,9,31,0.00
2013-4-29,57.4,47.5,29.6,31.1,24.2,11.6,78,41,22,29.68,29.30,60,24,60,0.00
2013-4-30,36.4,30.0,23.1,26.5,21.1,16.0,90,70,50,30.38,29.68,29,12,29,0.00
2013-5-1,44.9,31.1,13.1,26.8,18.5,9.7,95,62,33,30.60,30.37,24,4,24,0.00
2013-5-2,62.6,42.9,20.5,27.6,21.9,15.0,82,49,22,30.65,30.17,22,5,22,0.00
2013-5-3,49.4,41.3,32.0,43.2,33.4,20.5,95,74,45,30.22,30.11,25,8,25,0.13
2013-5-4,55.2,45.3,38.7,42.4,37.7,32.6,97,77,47,30.27,30.17,14,6,18,0.17
2013-5-5,62.7,48.6,31.4,35.4,30.7,27.1,86,54,31,30.23,29.91,22,9,22,0.00
2013-5-6,70.3,54.9,32.4,39.4,32.2,25.3,76,45,25,29.97,29.71,18,6,18,0.00
2013-5-7,71.0,58.3,40.2,42.5,35.9,30.3,68,45,26,29.89,29.69,33,8,33,0.00
2013-5-8,65.0,53.4,38.0,42.8,37.6,32.9,83,57,38,30.03,29.88,20,5,20,0.00
2013-5-9,70.3,57.0,40.0,45.5,39.3,34.0,80,54,33,30.03,29.91,19,6,20,0.00
2013-5-10,63.2,52.1,40.3,41.2,35.3,24.1,81,55,33,30.30,29.98,31,8,31,0.00
2013-5-11,73.7,54.0,32.7,44.4,35.0,24.6,73,51,30,30.33,29.90,30,7,30,0.00
2013-5-12,82.3,63.7,44.4,47.2,42.7,36.9,75,50,22,29.95,29.66,36,10,36,0.00
2013-5-13,83.0,68.4,52.8,51.3,45.8,41.0,71,46,28,29.78,29.38,40,6,40,0.00
2013-5-14,66.8,56.6,46.8,41.2,30.5,22.5,73,39,21,29.87,29.60,32,14,32,0.00
2013-5-15,66.8,54.0,37.8,38.6,30.8,22.5,68,42,30,29.95,29.76,23,4,23,0.00
2013-5-16,60.7,49.4,40.7,48.0,40.9,31.0,91,74,49,29.83,29.69,19,5,19,0.27
2013-5-17,56.1,50.6,43.5,49.7,45.7,41.5,94,84,69,29.82,29.74,14,4,14,0.07
2013-5-18,54.7,50.0,46.9,48.8,47.0,45.8,96,90,78,29.86,29.79,17,5,17,0.15
2013-5-19,51.0,47.6,46.0,49.0,46.2,43.2,97,95,84,30.05,29.85,24,10,24,0.68
2013-5-20,62.2,51.3,42.0,50.5,42.5,26.6,97,76,30,30.10,29.99,30,8,30,0.13
2013-5-21,62.5,50.1,34.1,41.0,34.0,28.3,90,58,32,30.08,29.81,29,11,29,0.00
2013-5-22,56.0,49.2,42.4,45.6,41.7,37.7,92,75,64,29.85,29.79,40,19,40,0.00
2013-5-23,55.6,49.2,0.0,48.0,43.7,-3.9,96,81,68,29.84,29.70,43,14,43,0.49
2013-5-24,62.9,51.2,40.4,43.5,38.1,30.3,97,66,30,29.83,29.70,33,11,33,0.10
2013-5-25,65.8,51.9,37.1,48.5,40.2,33.6,92,66,43,29.88,29.75,22,3,22,0.00
2013-5-26,70.0,54.4,39.7,51.7,45.3,37.3,94,73,48,29.90,29.68,23,7,27,0.34
2013-5-27,58.3,49.8,38.8,48.8,43.4,37.8,97,80,55,29.78,29.65,34,7,34,0.36
2013-5-28,64.1,50.3,37.6,48.0,42.5,35.8,94,76,44,29.69,29.59,15,4,15,0.00
2013-5-29,52.0,48.2,44.5,48.8,46.3,42.9,96,93,86,29.63,29.58,10,2,10,0.38
2013-5-30,48.5,45.3,42.9,47.4,43.9,41.3,97,95,91,29.82,29.55,36,17,36,1.16
2013-5-31,44.3,43.1,42.1,42.9,41.7,40.4,97,95,91,30.23,29.79,45,19,45,1.12
2013-6-1,64.5,52.9,40.4,48.7,42.6,38.4,93,70,41,30.25,29.90,12,2,12,0.00
2013-6-2,64.4,52.6,45.2,51.2,46.3,40.4,96,80,56,29.91,29.63,34,7,34,0.99
2013-6-3,47.6,42.0,38.2,46.8,40.5,37.0,97,95,91,30.10,29.59,37,19,38,1.32
2013-6-4,48.6,41.0,34.7,41.7,37.7,33.2,97,89,70,30.27,30.08,18,3,20,0.13
2013-6-5,65.8,50.7,32.5,47.0,39.3,31.0,95,69,40,30.26,29.86,13,4,13,0.00
2013-6-6,69.2,57.1,42.8,54.8,47.4,39.3,89,71,50,29.99,29.83,18,5,18,0.00
2013-6-7,74.9,62.1,46.5,57.6,50.0,42.5,91,67,39,29.85,29.47,33,8,33,0.00
2013-6-8,66.9,58.1,46.8,52.3,46.8,43.0,89,67,46,29.78,29.56,29,10,29,0.00
2013-6-9,76.0,61.7,44.1,54.6,45.4,39.7,88,58,36,29.80,29.52,18,3,18,0.00
2013-6-10,71.9,59.2,42.3,52.2,45.8,39.1,90,64,34,29.74,29.60,21,3,21,0.00
2013-6-11,65.3,56.0,49.2,56.9,50.7,46.6,96,83,70,29.89,29.61,32,5,32,0.83
2013-6-12,74.8,59.7,45.2,62.7,52.6,44.0,97,79,41,30.00,29.71,22,7,22,0.00
2013-6-13,61.2,52.4,48.0,56.6,49.9,46.1,96,91,83,29.93,29.71,26,7,26,0.21
2013-6-14,61.7,51.2,40.8,46.8,41.5,34.3,94,71,45,29.94,29.81,33,9,33,0.03
2013-6-15,68.6,56.8,41.7,47.7,39.5,34.0,78,54,31,29.95,29.78,23,8,23,0.00
2013-6-16,67.7,54.9,39.3,53.6,44.5,35.1,87,69,50,30.03,29.92,19,4,19,0.00
2013-6-17,74.2,60.2,44.6,57.5,49.9,42.4,94,71,46,30.02,29.78,21,7,21,0.00
2013-6-18,81.7,68.2,53.9,62.8,55.5,48.4,83,65,40,29.84,29.44,24,8,24,0.00
2013-6-19,74.5,62.3,49.0,61.0,53.5,46.2,90,74,54,29.56,29.31,53,8,53,0.08
2013-6-20,64.5,54.8,47.2,46.2,39.4,35.9,90,58,38,29.79,29.52,32,14,32,0.00
2013-6-21,61.3,54.0,45.7,50.4,46.3,41.3,93,76,54,30.03,29.89,25,5,26,0.18
2013-6-22,60.2,50.1,37.6,51.2,44.6,35.7,96,82,65,29.98,29.84,30,3,30,0.06
2013-6-23,70.1,55.8,37.5,50.5,43.9,35.7,95,68,40,29.89,29.56,21,5,21,0.00
2013-6-24,77.5,62.3,44.7,60.6,51.3,41.9,90,69,40,29.61,29.37,33,7,34,0.00
2013-6-25,73.7,64.2,54.1,53.7,50.7,45.1,89,64,39,29.66,29.44,24,7,31,0.00
2013-6-26,73.5,62.4,53.0,57.5,50.9,47.0,87,67,44,29.91,29.65,27,6,27,0.00
2013-6-27,76.1,63.4,48.2,56.0,50.5,44.4,90,65,41,30.07,29.89,17,4,17,0.00
2013-6-28,81.6,67.2,49.0,61.5,53.8,45.6,89,65,41,30.10,29.94,22,6,22,0.00
2013-6-29,82.1,69.0,52.0,64.7,57.6,49.5,92,69,46,30.02,29.83,16,6,16,0.00
2013-6-30,83.1,70.2,54.2,66.3,58.6,51.3,92,69,38,29.93,29.82,19,4,19,0.00
2013-7-1,83.6,70.7,54.3,65.8,58.7,52.0,93,68,38,30.00,29.89,15,4,15,0.00
2013-7-2,88.1,68.7,53.7,62.7,55.6,50.2,89,67,28,29.95,29.67,14,6,14,0.00
2013-7-3,89.5,73.9,57.2,64.1,56.5,51.3,81,58,29,29.71,29.55,24,7,24,0.00
2013-7-4,79.9,68.4,-90.0,67.8,61.7,-95.6,92,79,60,29.69,29.55,19,6,19,0.02
2013-7-5,76.8,65.4,55.1,58.5,54.4,50.0,94,70,45,29.70,29.55,25,5,25,0.37
2013-7-6,72.0,61.0,49.8,55.5,52.2,48.0,95,75,51,29.83,29.63,16,4,19,0.01
2013-7-7,77.2,63.9,54.8,62.0,55.3,49.8,93,75,54,29.80,29.66,38,8,38,0.43
2013-7-8,76.3,61.4,51.1,63.1,55.1,48.8,94,81,53,29.91,29.74,31,5,32,0.04
2013-7-9,75.5,62.3,49.4,55.6,51.3,46.9,95,70,44,30.06,29.89,17,2,17,0.00
2013-7-10,89.5,70.5,49.3,58.1,51.7,44.3,90,56,22,29.95,29.56,17,4,17,0.00
2013-7-11,82.6,74.7,65.3,58.7,49.9,41.4,59,42,27,29.57,29.42,23,4,25,0.00
2013-7-12,82.5,68.0,58.3,56.9,49.4,40.1,84,53,30,29.75,29.55,46,6,46,0.02
2013-7-13,72.0,63.0,53.8,53.9,49.0,44.1,85,62,41,30.06,29.67,24,9,24,0.00
2013-7-14,77.9,65.1,55.6,54.0,48.6,41.5,74,56,37,30.06,29.82,30,10,30,0.01
2013-7-15,91.4,72.4,53.4,61.2,50.7,41.3,88,53,18,29.86,29.62,26,5,28,0.00
2013-7-16,69.5,60.0,47.9,52.5,47.4,42.8,84,64,43,30.12,29.85,25,8,25,0.00
2013-7-17,79.9,65.6,56.9,65.4,58.3,51.9,93,78,59,30.02,29.77,46,6,46,0.34
2013-7-18,82.0,68.7,52.3,57.0,50.5,43.8,94,58,28,29.94,29.81,26,7,26,0.00
2013-7-19,84.4,68.2,49.2,54.5,46.6,38.3,84,52,21,29.95,29.73,27,6,27,0.00
2013-7-20,84.7,67.5,48.2,55.2,50.0,44.0,87,57,30,29.84,29.61,14,3,15,0.00
2013-7-21,82.0,69.4,50.5,52.8,48.7,43.2,81,51,30,29.67,29.57,26,7,26,0.00
2013-7-22,83.8,70.8,55.3,56.2,47.3,39.0,78,47,23,29.76,29.62,33,6,33,0.00
2013-7-23,81.4,66.9,49.7,54.7,49.4,44.1,81,56,33,29.91,29.74,19,6,19,0.00
2013-7-24,88.1,71.4,52.7,58.2,51.9,46.7,86,55,25,29.93,29.66,32,5,32,0.13
2013-7-25,75.3,63.7,50.2,58.2,53.9,48.5,95,72,47,30.01,29.85,25,6,25,0.02
2013-7-26,79.2,64.6,50.4,57.8,49.4,42.9,77,59,46,30.10,29.88,27,10,27,0.00
2013-7-27,86.5,69.7,52.4,55.7,47.7,41.5,75,49,23,29.90,29.57,22,5,22,0.00
2013-7-28,74.1,61.5,50.7,56.1,52.2,45.3,90,73,49,29.80,29.58,20,4,20,0.00
2013-7-29,68.2,56.4,48.7,55.6,50.4,45.4,95,81,60,30.00,29.74,23,4,23,0.45
2013-7-30,70.5,59.3,51.0,58.5,52.5,47.6,93,79,56,30.13,29.89,15,2,15,0.02
2013-7-31,80.5,65.2,47.9,56.1,51.6,45.7,95,66,38,30.13,29.88,14,3,14,0.00
2013-8-1,73.7,63.3,53.3,54.7,50.3,47.3,93,64,42,29.90,29.74,29,6,29,0.12
2013-8-2,67.2,58.1,52.0,58.3,53.8,50.2,96,86,65,29.98,29.75,40,4,40,1.05
2013-8-3,70.2,58.5,47.9,58.8,53.3,46.3,95,84,62,30.02,29.87,40,5,40,0.02
2013-8-4,75.2,61.5,45.8,58.0,50.7,44.1,95,71,44,29.99,29.84,15,4,15,0.00
2013-8-5,77.7,63.7,48.5,60.0,49.1,43.4,92,63,30,29.90,29.69,55,5,55,0.01
2013-8-6,74.2,60.8,44.1,52.9,47.3,41.5,93,64,33,29.90,29.78,36,6,36,0.00
2013-8-7,76.0,62.6,47.0,57.7,51.1,43.3,88,68,42,29.91,29.79,21,6,22,0.00
2013-8-8,73.8,62.4,48.7,59.1,52.4,46.1,92,71,53,29.95,29.83,18,4,19,0.00
2013-8-9,72.5,62.0,51.7,57.1,52.4,46.4,85,71,53,30.02,29.91,26,5,26,0.03
2013-8-10,79.8,64.5,50.8,60.2,54.2,48.1,92,71,44,29.94,29.83,15,2,15,0.00
2013-8-11,75.8,66.7,53.9,62.5,57.3,49.5,89,73,58,29.92,29.82,16,3,16,0.00
2013-8-12,79.6,65.1,51.8,65.6,53.3,40.0,90,68,26,30.06,29.80,60,7,60,0.14
2013-8-13,78.7,66.0,51.7,59.5,52.9,45.2,89,64,42,30.00,29.83,33,4,33,0.00
2013-8-14,80.6,66.1,54.8,58.3,51.8,47.6,82,62,33,29.92,29.79,25,3,33,0.00
2013-8-15,57.7,53.3,50.9,51.0,48.6,46.7,86,84,81,29.85,29.83,12,2,12,0.00
2013-8-19,89.2,74.9,47.7,52.7,45.7,37.8,81,39,19,29.81,29.61,39,5,39,0.00
2013-8-20,82.9,66.1,47.8,53.1,45.7,37.5,72,50,28,29.81,29.67,16,3,16,0.00
2013-8-21,77.4,62.2,44.1,49.2,44.2,38.8,83,55,29,29.99,29.76,17,3,18,0.00
2013-8-22,86.5,71.6,54.1,60.4,52.6,44.2,80,53,32,29.94,29.66,18,3,18,0.00
2013-8-23,86.2,69.2,57.0,58.0,52.5,48.0,86,59,29,29.72,29.55,36,5,39,0.04
2013-8-24,81.9,68.1,57.8,58.6,52.1,47.6,86,59,33,29.74,29.56,17,2,17,0.00
2013-8-25,86.3,70.6,52.3,54.2,46.9,43.5,76,47,24,29.83,29.63,20,3,20,0.00
2013-8-26,87.3,71.8,59.5,53.9,48.8,44.3,70,46,24,29.80,29.62,25,3,25,0.00
2013-8-27,85.5,69.9,51.7,55.1,49.5,45.4,85,52,28,29.87,29.69,20,4,20,0.00
2013-8-28,89.8,68.6,53.7,59.5,52.1,45.1,89,60,27,29.85,29.61,40,4,40,0.07
2013-8-29,88.0,69.4,50.4,58.2,50.6,47.0,91,58,25,29.95,29.73,20,3,20,0.00
2013-8-30,87.3,71.1,55.1,55.6,51.9,46.3,85,54,30,29.86,29.67,26,3,26,0.00
2013-8-31,74.8,62.1,47.2,47.3,43.2,39.6,80,52,32,29.98,29.78,19,4,21,0.00
2013-9-1,86.6,66.3,46.8,52.6,45.6,39.4,83,52,25,29.98,29.72,14,3,14,0.00
2013-9-2,94.2,73.2,51.4,51.8,44.6,39.6,68,40,16,29.77,29.61,23,6,23,0.00
2013-9-3,86.7,69.9,51.3,51.4,48.2,44.8,79,50,27,29.83,29.63,14,3,14,0.00
2013-9-4,87.5,70.9,57.4,56.3,51.8,46.8,73,53,32,29.93,29.80,20,3,20,0.00
2013-9-5,93.2,70.3,55.1,61.5,54.7,49.7,83,62,25,29.88,29.68,40,3,40,0.11
2013-9-6,85.8,73.5,58.5,62.3,57.7,54.2,92,60,37,29.89,29.70,38,4,38,0.22
2013-9-7,71.6,62.7,54.7,61.7,58.0,52.1,94,85,69,29.98,29.76,46,4,46,0.09
2013-9-8,74.1,58.5,52.9,61.4,54.3,49.8,97,87,58,29.89,29.66,40,2,40,0.10
2013-9-9,68.0,56.7,48.8,55.2,49.4,44.1,92,77,61,29.93,29.73,28,8,28,0.00
2013-9-10,78.4,61.1,44.5,54.9,47.4,42.4,94,66,32,29.99,29.88,19,4,19,0.00
2013-9-11,76.7,61.0,45.6,55.1,47.1,42.2,89,63,37,30.16,29.94,18,5,18,0.00
2013-9-12,77.5,62.1,42.6,51.6,45.3,37.5,82,57,37,30.20,29.81,30,6,30,0.00
2013-9-13,78.7,65.6,49.5,56.3,51.0,44.8,86,62,39,29.82,29.59,11,2,12,0.00
2013-9-14,69.8,62.1,53.5,53.8,50.7,40.5,82,67,53,30.01,29.60,20,6,20,0.00
2013-9-15,73.0,60.1,43.3,54.7,48.0,38.6,86,65,48,30.07,29.73,28,7,28,0.00
2013-9-16,87.1,66.6,50.4,52.9,49.1,44.4,89,58,25,29.75,29.52,46,6,46,0.00
2013-9-17,70.9,57.0,48.8,57.2,49.3,43.9,95,76,50,29.73,29.48,30,3,30,0.48
2013-9-18,52.7,47.6,40.2,50.4,44.8,36.9,96,90,78,29.97,29.46,29,6,29,0.32
2013-9-19,58.4,46.1,38.2,42.3,36.7,33.0,90,72,40,30.15,29.97,28,8,28,0.00
2013-9-20,74.2,53.8,35.4,43.6,35.6,29.6,92,57,21,30.06,29.63,21,6,21,0.00
2013-9-21,82.5,61.5,41.1,47.2,37.8,30.0,74,46,19,29.65,29.37,28,5,28,0.00
2013-9-22,67.5,55.7,45.7,47.2,41.2,34.0,91,60,39,29.57,29.36,24,3,24,0.07
2013-9-23,63.1,51.7,38.2,45.5,37.0,31.3,93,61,32,29.84,29.53,28,10,33,0.00
2013-9-24,60.5,47.7,35.6,46.3,38.5,30.3,95,72,45,29.89,29.55,28,4,29,0.19
2013-9-25,45.1,43.1,39.8,42.8,41.1,38.2,96,92,88,29.73,29.58,19,3,19,0.15
2013-9-26,40.0,37.0,34.4,38.3,35.3,32.2,100,93,88,30.03,29.72,0,0,0,0.41
2013-9-27,53.6,41.0,30.2,37.4,31.0,26.2,95,71,39,30.05,29.76,24,6,25,0.00
2013-9-28,60.4,51.3,38.6,40.6,35.8,30.6,76,56,41,29.82,29.53,33,13,33,0.00
2013-9-29,63.0,55.0,46.4,40.8,35.3,32.0,64,48,37,29.55,29.25,38,17,49,0.00
2013-9-30,56.3,50.7,43.6,45.9,34.2,25.3,90,54,33,29.76,29.34,45,14,45,0.10
2013-10-1,59.0,48.8,40.5,31.7,28.3,25.2,64,46,28,29.88,29.74,33,14,33,0.00
2013-10-2,50.6,44.3,32.3,31.4,29.3,26.6,82,56,42,30.07,29.94,17,3,17,0.00
2013-10-3,42.4,34.6,31.5,32.7,30.5,28.2,94,85,58,30.43,29.94,23,5,23,0.12
2013-10-4,41.9,33.7,25.1,31.4,28.0,22.3,94,81,54,30.53,30.40,12,2,13,0.02
2013-10-5,57.8,40.9,22.5,36.5,28.5,19.5,90,65,38,30.41,30.07,26,9,26,0.00
2013-10-6,69.2,51.1,34.5,40.3,33.4,29.5,82,54,27,30.15,29.88,15,2,16,0.00
2013-10-7,73.3,52.8,36.6,34.6,29.5,24.0,76,45,19,29.89,29.53,28,7,28,0.00
2013-10-8,51.7,42.3,29.6,32.2,28.8,24.8,83,60,38,29.98,29.57,21,3,21,0.00
2013-10-9,30.6,28.8,26.9,25.5,24.3,22.6,85,83,81,30.03,29.97,10,4,10,0.00
2013-10-19,55.2,50.0,39.2,36.5,33.3,31.1,89,54,41,29.93,29.79,35,15,35,0.05
2013-10-20,50.1,41.6,37.8,38.2,34.7,32.2,90,77,54,30.07,29.92,24,9,24,0.01
2013-10-21,54.8,47.4,40.2,38.2,35.8,32.6,76,64,51,30.04,29.96,32,12,32,0.00
2013-10-22,60.7,44.9,32.1,41.1,34.4,29.4,92,69,43,30.13,29.98,15,5,15,0.00
2013-10-23,55.0,43.9,36.8,40.6,35.8,31.3,86,74,52,30.23,30.04,17,3,17,0.00
2013-10-24,60.1,43.8,31.4,41.8,36.1,29.4,94,76,48,30.24,29.98,15,4,15,0.00
2013-10-25,60.6,44.5,32.4,37.9,31.9,27.3,83,64,35,30.27,29.98,15,4,15,0.00
2013-10-26,65.4,46.1,31.4,38.1,27.8,20.2,85,55,22,30.24,29.85,18,6,18,0.00
2013-10-27,56.0,38.0,27.2,31.9,24.8,18.9,88,61,31,30.20,29.78,27,8,27,0.00
2013-10-28,27.4,20.9,17.7,24.2,18.4,14.9,100,90,87,30.39,30.17,26,9,26,0.00
2013-10-29,28.7,22.9,19.0,25.4,20.5,16.8,94,90,85,30.31,29.94,14,2,14,0.01
2013-10-30,47.0,31.6,18.1,32.4,23.8,15.9,93,75,47,29.96,29.75,30,9,30,0.00
2013-10-31,50.0,40.4,31.6,34.2,28.4,24.9,78,62,46,29.87,29.66,39,16,44,0.00
2013-11-1,48.9,39.8,31.2,28.8,26.0,22.9,72,58,41,30.13,29.85,31,9,31,0.00
2013-11-2,53.2,40.0,26.1,33.7,27.6,21.3,83,63,40,30.09,29.49,28,5,28,0.00
2013-11-3,42.4,33.6,23.9,33.2,23.6,17.3,89,68,45,29.97,29.48,37,14,37,0.00
2013-11-4,28.3,22.8,15.2,21.1,18.1,12.3,90,82,67,30.21,29.96,19,6,19,0.00
2013-11-5,35.4,25.5,13.5,21.6,14.3,10.4,90,65,41,30.20,30.03,24,7,24,0.00
2013-11-6,37.4,32.2,26.7,30.9,25.8,19.3,90,77,65,30.33,30.02,31,6,31,0.00
2013-11-7,50.0,36.4,18.8,37.5,25.3,14.8,85,65,51,30.35,29.51,30,5,30,0.01
2013-11-8,48.2,39.3,33.3,37.5,27.0,22.8,86,62,46,30.01,29.51,37,16,37,0.12
2013-11-9,44.1,32.6,24.7,26.3,22.1,18.6,92,67,38,30.23,30.01,14,3,15,0.00
2013-11-10,36.1,29.6,20.9,27.0,23.3,18.2,92,78,58,30.39,30.09,11,2,13,0.00
2013-11-11,39.0,26.9,19.7,32.1,23.9,17.5,93,88,75,30.55,30.38,16,4,16,0.07
2013-11-12,67.0,43.9,26.3,38.4,28.7,22.9,92,60,26,30.50,30.01,20,6,20,0.00
2013-11-13,52.9,45.1,32.1,33.5,28.5,22.8,69,53,39,30.06,29.91,40,13,40,0.00
2013-11-14,46.9,36.1,23.7,27.4,23.5,17.5,79,61,42,30.03,29.68,25,8,25,0.00
2013-11-15,43.7,36.2,23.2,28.5,22.0,16.9,91,57,42,29.70,29.25,36,15,36,0.00
2013-11-16,38.3,32.3,19.9,30.5,25.0,17.5,93,75,59,29.58,29.18,32,8,32,0.00
2013-11-17,35.6,25.0,9.9,23.7,17.2,7.1,91,73,53,30.04,29.57,34,12,34,0.01
2013-11-18,48.6,41.5,31.3,25.6,21.3,16.8,61,45,34,29.92,29.62,30,11,30,0.00
2013-11-19,54.3,40.5,9.9,29.7,23.2,6.6,88,53,37,29.82,29.36,38,14,38,0.00
2013-11-20,10.8,4.1,-7.5,7.9,0.7,-11.8,88,85,81,30.68,29.82,23,8,23,0.00
2013-11-21,25.4,7.3,-6.3,17.5,-1.2,-10.6,85,70,29,30.85,30.59,15,5,15,0.00
2013-11-22,34.1,21.7,6.7,16.2,7.5,-2.2,72,55,41,30.75,30.54,18,6,18,0.00
2013-11-23,49.6,28.2,12.6,25.6,13.8,5.7,75,57,29,30.69,30.09,15,6,15,0.00
2013-11-24,49.0,33.5,19.5,26.5,18.8,10.5,75,56,36,30.19,30.01,22,4,22,0.00
2013-11-25,38.6,27.5,18.0,23.7,19.2,14.3,87,72,46,30.46,30.18,16,3,16,0.00
2013-11-26,51.0,34.8,25.1,29.3,23.6,20.1,83,65,41,30.42,29.92,13,4,13,0.00
2013-11-27,44.0,35.8,25.2,26.4,21.2,14.8,65,55,40,30.18,29.90,17,4,17,0.00
2013-11-28,49.9,32.1,20.3,26.5,20.0,14.6,81,63,37,30.18,29.92,15,4,15,0.00
2013-11-29,54.4,39.6,28.6,31.3,22.4,18.7,82,52,30,30.12,29.89,21,4,21,0.00
2013-11-30,45.8,38.8,33.5,33.3,29.7,27.1,89,71,51,30.13,29.99,19,3,19,0.00
2013-12-1,44.4,39.4,33.1,34.1,30.3,25.5,84,70,54,30.00,29.52,27,12,27,0.05
2013-12-2,42.6,27.1,7.2,35.4,23.3,3.1,94,86,57,30.02,29.45,41,13,41,0.27
2013-12-3,7.4,3.2,-2.4,3.9,-0.2,-6.0,86,85,84,30.50,30.01,31,18,31,0.00
2013-12-4,-0.7,-4.7,-13.0,-4.5,-8.6,-17.4,92,83,80,30.60,30.48,26,12,26,0.00
2013-12-5,-0.5,-10.0,-17.4,-5.2,-14.4,-22.0,94,80,78,30.74,30.55,13,4,13,0.00
2013-12-6,-14.9,-23.1,-27.3,-19.5,-28.1,-32.5,80,77,75,30.94,30.73,12,4,12,0.00
2013-12-7,-2.0,-20.2,-28.3,-8.9,-25.3,-33.5,85,76,68,30.94,30.39,14,4,14,0.00
2013-12-8,6.7,-2.0,-21.8,3.3,-6.2,-27.0,86,82,75,30.43,30.28,33,10,33,0.00
2013-12-9,22.2,14.0,-4.5,16.5,7.7,-9.1,83,75,67,30.32,30.01,40,16,40,0.00
2013-12-10,25.9,15.6,-1.8,21.5,11.7,-5.4,91,84,67,30.46,29.92,37,12,37,0.00
2013-12-11,31.4,21.8,-3.9,23.5,13.7,-7.8,92,71,59,30.47,30.12,31,15,31,0.00
2013-12-12,41.0,35.5,29.7,28.2,24.6,21.4,75,64,55,30.13,29.83,28,11,30,0.00
2013-12-13,35.7,30.9,26.0,27.0,23.0,19.8,82,72,60,30.20,29.83,21,5,24,0.00
2013-12-14,40.4,35.2,28.8,30.0,26.3,21.6,77,70,63,30.18,29.87,30,16,30,0.00
2013-12-15,42.5,40.2,35.7,28.8,27.4,24.8,69,60,56,29.92,29.84,37,19,37,0.00
2013-12-16,41.7,34.2,22.0,28.9,25.0,17.5,86,69,52,30.26,29.91,35,9,35,0.00
2013-12-17,50.6,40.5,18.2,28.8,24.3,14.7,92,55,36,30.26,29.64,37,14,37,0.00
2013-12-18,46.5,33.4,7.9,27.1,22.6,4.6,93,67,42,30.04,29.60,25,7,25,0.00
2013-12-19,10.6,-0.4,-6.8,4.1,-4.3,-10.9,86,83,80,30.43,30.02,25,8,25,0.00
2013-12-20,24.7,15.2,1.2,18.8,10.1,-4.4,90,80,71,30.18,29.59,22,6,22,0.00
2013-12-21,22.8,17.3,11.8,21.1,14.9,9.2,93,90,88,30.16,29.59,19,5,20,0.00
2013-12-22,12.0,6.2,-2.8,9.2,2.8,-6.4,92,85,78,30.53,30.15,15,4,15,0.00
2013-12-23,41.8,26.5,0.2,33.0,20.9,-3.5,95,80,66,30.46,29.75,37,13,37,0.17
2013-12-24,35.7,30.0,21.7,31.2,24.0,14.9,95,79,64,30.38,29.81,39,17,39,0.00
2013-12-25,40.4,27.8,10.8,25.1,16.4,7.1,87,64,42,30.45,30.07,32,9,32,0.00
2013-12-26,44.1,39.3,31.0,32.0,28.2,19.8,73,64,53,30.14,29.92,31,14,31,0.00
2013-12-27,51.5,44.4,38.7,31.9,27.2,21.8,72,51,37,30.02,29.69,31,10,31,0.00
2013-12-28,44.3,14.1,3.4,27.6,7.7,-0.9,92,76,41,30.58,29.69,44,9,44,0.00
2013-12-29,35.2,25.1,11.7,25.3,17.2,8.1,87,72,56,30.55,29.90,32,10,32,0.00
2013-12-30,40.5,33.6,26.2,30.0,24.8,21.7,87,70,58,30.18,29.77,33,10,33,0.00
2013-12-31,40.4,32.6,26.1,32.3,27.9,24.4,93,83,67,30.07,29.77,33,5,33,0.03
2014-1-1,31.2,23.3,13.2,26.9,20.7,9.5,94,90,78,30.38,30.06,21,6,21,0.09
2014-1-2,43.6,31.2,12.5,31.6,23.4,9.5,90,74,61,30.31,29.59,35,13,35,0.01